Showing default

GALS 1, 22963

Orbit data source: Space-Track

GALS 1, 22963 is a Commonwealth of Independent States-origin payload satellite in GEO that was launched on Thu, 20 Jan 1994 UTC via a PROTON-K/DM-2M launch vehicle from the Tyuratam Missile And Space Complex (TTMTR). Payload-class satellites include a variety of spacecraft equipped with specific instruments for various scientific and technological missions. These include communications satellites like Starlink; space stations such as the ISS; scientific satellites like the Hubble; Earth observation satellites from companies like Planet Labs, Umbra, and HawkEye 360; GPS; miniature CubeSats for education and research; and military/defense satellites.

Not visible in the next 10 days
Identifier
22963, 1994-002A
Orbit
GEO
Country
Flag of CISCIS
Related business
Manufacturer
NPO PM
Mission
Non-operational Defense Communications
Bus & Motor
GALS, Unknown motor
Mass
2,600 kg wet, ~2,400 kg dry
Launch date (UTC)
1994-01-20 (32 years ago)
Launch vehicle
PROTON-K/DM-2M
Launch site
Tyuratam Missile And Space Complex (TTMTR)
Object type
Payload
Rocket body
Debris
Shape & HBR
Cyl + 2 Pan, 5.0 m
Radar Cross Section
34.346 m², Large (>1 m²)

Expand to show TLE details & history
Last TLE update: 11 hours ago

TLE from 11 hours ago
0 GALS 1
1 22963U 94002A   26095.31989275  .00000119  00000-0  00000+0 0  9993
2 22963  14.5387 354.4077 0010552 240.7147 113.3633  1.00315057117977
Epoch: 2026-04-05T07:40Z
TLE epoch observation values (Epoch: 2026-04-05T07:40:38.733Z)
Latitude
-1.44879°
Longitude
40.00287°
Altitude
35,792.157 km
Speed
3.074 km/s
True Right ascension
23h 15m 09s
True Declination
-1° 26' 50"
Sunlit
Object was in daylight at epoch
Visualization orbit readout
Latitude
Unknown
Longitude
Unknown
Altitude
Unknown
Speed
Unknown
Apparent Right ascension
Unknown
Apparent Declination
Unknown
Sunlit
N/A
Visualization observer readout
Local Sidereal Time
00:16:17
Azimuth
Unknown
Elevation
Unknown
Doppler factor
Unknown
Orbital elements
Apogee altitude
35,819.921 km
Perigee altitude
35,730.96 km
Semi-major axis
42,153.578 km
Eccentricity
0.00106
Inclination
14.5387°
RAAN
354.4077°
Arg. of periapsis
240.7147°
True anomaly
113.47424°
Mean anomaly
113.3633°
Eccentric anomaly
113.41878°
Mean motion
0.25078 °/min
Orbital period
1,435.53 mins
BSTAR
0
Loading maneuver chart data...
Computing Atmospheric mass density...
Loading historical data...
Loading historical data...
Loading historical data...
Loading historical data...
Loading historical data...
Loading historical data...
Loading historical data...

Documentation

Showing up to 5 results
|